| time (UTC) | temp F | wind direction | speed MPH | gust MPH | rain 1hr in | rain 24hr in | rain mn in | humidity % | barometer mb |
| 20260510123532 | 68 | 143 | 3.0 | 7.0 | 0.00 | 0.03 | 0.00 | 96 | 1013.9 |
| 20260510123257 | 68 | 150 | 3.0 | 6.0 | 0.00 | 0.03 | 0.00 | 96 | 1013.8 |
| 20260510122533 | 68 | 169 | 3.0 | 6.0 | 0.00 | 0.03 | 0.00 | 96 | 1013.8 |
| 20260510122114 | 67 | 170 | 2.0 | 5.0 | 0.00 | 0.03 | 0.00 | 96 | 1013.6 |
| 20260510122110 | 68 | 156 | 2.0 | 5.0 | 0.00 | 0.03 | 0.00 | 96 | 1013.7 |
| 20260510121032 | 67 | 171 | 2.0 | 5.0 | 0.00 | 0.03 | 0.00 | 96 | 1013.6 |
| 20260510120533 | 67 | 172 | 2.0 | 5.0 | 0.00 | 0.03 | 0.00 | 96 | 1013.5 |
| 20260510120032 | 67 | 181 | 2.0 | 5.0 | 0.00 | 0.03 | 0.00 | 96 | 1013.3 |
| 20260510115532 | 67 | 190 | 2.0 | 6.0 | 0.00 | 0.03 | 0.00 | 96 | 1013.2 |
| 20260510115032 | 67 | 189 | 2.0 | 6.0 | 0.00 | 0.03 | 0.00 | 96 | 1013.0 |
| 20260510114532 | 67 | 179 | 2.0 | 5.0 | 0.00 | 0.03 | 0.00 | 95 | 1013.0 |
| 20260510114032 | 67 | 173 | 2.0 | 5.0 | 0.00 | 0.03 | 0.00 | 95 | 1013.2 |
| 20260510113534 | 67 | 186 | 1.0 | 3.0 | 0.00 | 0.03 | 0.00 | 95 | 1013.2 |
| 20260510113033 | 68 | 186 | 1.0 | 3.0 | 0.00 | 0.03 | 0.00 | 95 | 1013.3 |
| 20260510112532 | 68 | 186 | 1.0 | 2.0 | 0.00 | 0.03 | 0.00 | 95 | 1013.2 |
| 20260510112030 | 68 | 186 | 1.0 | 3.0 | 0.00 | 0.03 | 0.00 | 95 | 1013.2 |
| 20260510111530 | 68 | 186 | 1.0 | 4.0 | 0.00 | 0.03 | 0.00 | 94 | 1013.0 |
| 20260510111028 | 68 | 186 | 1.0 | 4.0 | 0.00 | 0.03 | 0.00 | 94 | 1013.0 |
| 20260510110529 | 68 | 186 | 1.0 | 4.0 | 0.00 | 0.03 | 0.00 | 94 | 1013.0 |
| 20260510110028 | 68 | 186 | 2.0 | 4.0 | 0.00 | 0.03 | 0.00 | 94 | 1013.0 |
| 20260510105527 | 68 | 186 | 1.0 | 4.0 | 0.00 | 0.03 | 0.00 | 94 | 1013.0 |
| 20260510105024 | 69 | 190 | 1.0 | 4.0 | 0.00 | 0.03 | 0.00 | 94 | 1013.0 |
| 20260510104740 | 69 | 193 | 1.0 | 3.0 | 0.00 | 0.03 | 0.00 | 94 | 1013.0 |
| 20260510104025 | 69 | 194 | 1.0 | 5.0 | 0.00 | 0.03 | 0.00 | 94 | 1012.9 |
| 20260510103523 | 69 | 194 | 1.0 | 5.0 | 0.00 | 0.03 | 0.00 | 93 | 1012.9 |
| 20260510103029 | 69 | 187 | 3.0 | 7.0 | 0.00 | 0.03 | 0.00 | 93 | 1012.8 |
| 20260510103025 | 69 | 193 | 2.0 | 5.0 | 0.00 | 0.03 | 0.00 | 93 | 1012.8 |
| 20260510102022 | 69 | 185 | 3.0 | 7.0 | 0.00 | 0.03 | 0.00 | 93 | 1012.7 |
| 20260510101520 | 69 | 183 | 3.0 | 7.0 | 0.00 | 0.03 | 0.00 | 93 | 1012.6 |
| 20260510101014 | 69 | 191 | 2.0 | 7.0 | 0.00 | 0.03 | 0.00 | 93 | 1012.4 |
| 20260510100514 | 69 | 183 | 2.0 | 6.0 | 0.00 | 0.03 | 0.00 | 93 | 1012.4 |
| 20260510100245 | 69 | 186 | 2.0 | 4.0 | 0.00 | 0.03 | 0.00 | 92 | 1012.4 |
| 20260510095739 | 70 | 190 | 2.0 | 4.0 | 0.00 | 0.03 | 0.00 | 92 | 1012.5 |
| 20260510095014 | 70 | 190 | 2.0 | 7.0 | 0.00 | 0.03 | 0.00 | 92 | 1012.4 |
| 20260510094514 | 70 | 184 | 3.0 | 9.0 | 0.00 | 0.03 | 0.00 | 92 | 1012.3 |
| 20260510094015 | 70 | 186 | 3.0 | 9.0 | 0.00 | 0.03 | 0.00 | 92 | 1012.2 |
| 20260510093513 | 70 | 178 | 3.0 | 7.0 | 0.00 | 0.03 | 0.00 | 92 | 1012.2 |
| 20260510093012 | 70 | 198 | 3.0 | 7.0 | 0.00 | 0.03 | 0.00 | 92 | 1012.2 |
| 20260510092736 | 70 | 188 | 3.0 | 5.0 | 0.00 | 0.03 | 0.00 | 92 | 1012.1 |
| 20260510092238 | 70 | 204 | 3.0 | 6.0 | 0.00 | 0.03 | 0.00 | 92 | 1012.1 |
| 20260510091512 | 70 | 189 | 3.0 | 7.0 | 0.00 | 0.03 | 0.00 | 92 | 1012.1 |
| 20260510091012 | 70 | 184 | 3.0 | 9.0 | 0.00 | 0.03 | 0.00 | 92 | 1012.1 |
| 20260510090738 | 70 | 196 | 3.0 | 9.0 | 0.00 | 0.03 | 0.00 | 91 | 1012.1 |
| 20260510090012 | 70 | 178 | 3.0 | 7.0 | 0.00 | 0.03 | 0.00 | 91 | 1012.1 |
| 20260510085512 | 70 | 182 | 3.0 | 7.0 | 0.00 | 0.03 | 0.00 | 91 | 1012.3 |
| 20260510085012 | 70 | 146 | 3.0 | 6.0 | 0.00 | 0.03 | 0.00 | 90 | 1012.3 |
| 20260510084511 | 70 | 187 | 3.0 | 6.0 | 0.00 | 0.03 | 0.00 | 90 | 1012.3 |
| 20260510084012 | 70 | 189 | 3.0 | 6.0 | 0.00 | 0.03 | 0.00 | 90 | 1012.3 |
| 20260510083512 | 70 | 166 | 2.0 | 6.0 | 0.00 | 0.03 | 0.00 | 89 | 1012.3 |
| 20260510083012 | 70 | 186 | 2.0 | 7.0 | 0.00 | 0.03 | 0.00 | 89 | 1012.3 |
| 20260510082512 | 71 | 157 | 3.0 | 7.0 | 0.00 | 0.03 | 0.00 | 89 | 1012.4 |
| 20260510082457 | 71 | 174 | 3.0 | 6.0 | 0.00 | 0.03 | 0.00 | 89 | 1012.4 |
| 20260510081511 | 71 | 188 | 3.0 | 6.0 | 0.00 | 0.03 | 0.00 | 88 | 1012.6 |
| 20260510081011 | 71 | 210 | 3.0 | 6.0 | 0.00 | 0.03 | 0.00 | 88 | 1012.5 |
| 20260510080512 | 71 | 195 | 2.0 | 5.0 | 0.00 | 0.03 | 0.00 | 88 | 1012.6 |
| 20260510080011 | 71 | 187 | 2.0 | 5.0 | 0.00 | 0.03 | 0.00 | 88 | 1012.7 |
| 20260510075509 | 71 | 173 | 2.0 | 6.0 | 0.00 | 0.03 | 0.00 | 88 | 1012.6 |
| 20260510075006 | 71 | 187 | 2.0 | 6.0 | 0.00 | 0.03 | 0.00 | 88 | 1012.7 |
| 20260510074505 | 71 | 184 | 2.0 | 5.0 | 0.00 | 0.03 | 0.00 | 87 | 1012.8 |
| 20260510074449 | 71 | 174 | 2.0 | 5.0 | 0.00 | 0.03 | 0.00 | 87 | 1012.8 |
| 20260510073454 | 71 | 172 | 2.0 | 5.0 | 0.00 | 0.03 | 0.00 | 86 | 1012.9 |
| 20260510073228 | 71 | 175 | 2.0 | 8.0 | 0.00 | 0.03 | 0.00 | 86 | 1012.9 |
| 20260510072725 | 72 | 181 | 2.0 | 8.0 | 0.00 | 0.03 | 0.00 | 86 | 1012.8 |
| 20260510071950 | 72 | 165 | 3.0 | 9.0 | 0.00 | 0.03 | 0.00 | 86 | 1012.8 |
| 20260510071448 | 72 | 172 | 4.0 | 9.0 | 0.00 | 0.03 | 0.00 | 86 | 1012.7 |
| 20260510070943 | 72 | 169 | 4.0 | 7.0 | 0.00 | 0.03 | 0.00 | 87 | 1012.7 |
| 20260510070442 | 71 | 146 | 3.0 | 7.0 | 0.00 | 0.03 | 0.00 | 87 | 1012.7 |
| 20260510065942 | 71 | 156 | 3.0 | 6.0 | 0.00 | 0.03 | 0.00 | 88 | 1012.6 |
| 20260510065442 | 71 | 146 | 3.0 | 6.0 | 0.00 | 0.03 | 0.00 | 88 | 1012.6 |
| 20260510065203 | 72 | 167 | 2.0 | 6.0 | 0.00 | 0.03 | 0.00 | 88 | 1012.6 |
| 20260510064440 | 72 | 160 | 2.0 | 5.0 | 0.00 | 0.03 | 0.00 | 88 | 1012.6 |
| 20260510063938 | 72 | 155 | 2.0 | 5.0 | 0.00 | 0.03 | 0.00 | 88 | 1012.7 |
| 20260510063436 | 72 | 156 | 2.0 | 5.0 | 0.00 | 0.03 | 0.00 | 88 | 1012.6 |
| 20260510062935 | 72 | 155 | 2.0 | 5.0 | 0.00 | 0.03 | 0.00 | 88 | 1012.6 |
| 20260510062436 | 72 | 169 | 2.0 | 5.0 | 0.00 | 0.03 | 0.00 | 88 | 1012.7 |
| 20260510061934 | 73 | 160 | 2.0 | 6.0 | 0.00 | 0.03 | 0.00 | 88 | 1012.5 |
| 20260510061433 | 73 | 160 | 2.0 | 6.0 | 0.00 | 0.03 | 0.00 | 87 | 1012.5 |
| 20260510061208 | 73 | 159 | 3.0 | 6.0 | 0.00 | 0.03 | 0.00 | 88 | 1012.6 |
| 20260510060433 | 73 | 173 | 3.0 | 6.0 | 0.00 | 0.03 | 0.00 | 87 | 1012.6 |
| 20260510060153 | 74 | 161 | 3.0 | 6.0 | 0.00 | 0.03 | 0.00 | 88 | 1012.7 |
| 20260510055433 | 74 | 186 | 3.0 | 7.0 | 0.00 | 0.03 | 0.00 | 88 | 1012.7 |
| 20260510054932 | 74 | 167 | 4.0 | 7.0 | 0.00 | 0.03 | 0.00 | 88 | 1012.7 |
| 20260510054432 | 74 | 159 | 4.0 | 8.0 | 0.00 | 0.03 | 0.00 | 88 | 1012.7 |
| 20260510053932 | 74 | 155 | 5.0 | 9.0 | 0.00 | 0.03 | 0.00 | 88 | 1012.7 |
| 20260510053659 | 74 | 159 | 5.0 | 11.0 | 0.00 | 0.03 | 0.00 | 88 | 1012.6 |
| 20260510052932 | 74 | 164 | 5.0 | 11.0 | 0.00 | 0.03 | 0.00 | 89 | 1012.6 |
| 20260510052432 | 74 | 144 | 4.0 | 9.0 | 0.00 | 0.03 | 0.00 | 90 | 1012.6 |
| 20260510051932 | 74 | 140 | 3.0 | 5.0 | 0.00 | 0.03 | 0.00 | 90 | 1012.5 |
| 20260510051429 | 74 | 165 | 2.0 | 5.0 | 0.00 | 0.03 | 0.00 | 89 | 1012.5 |
| 20260510050929 | 74 | 157 | 2.0 | 3.0 | 0.00 | 0.03 | 0.00 | 89 | 1012.5 |
| 20260510050430 | 74 | 157 | 1.0 | 5.0 | 0.00 | 0.03 | 0.00 | 89 | 1012.4 |
| 20260510045928 | 74 | 157 | 2.0 | 5.0 | 0.00 | 0.03 | 0.03 | 89 | 1012.6 |
| 20260510045920 | 74 | 154 | 2.0 | 5.0 | 0.00 | 0.03 | 0.03 | 88 | 1012.5 |
| 20260510044926 | 75 | 167 | 2.0 | 5.0 | 0.00 | 0.03 | 0.03 | 88 | 1012.5 |
| 20260510044426 | 75 | 153 | 2.0 | 5.0 | 0.00 | 0.03 | 0.03 | 88 | 1012.5 |
| 20260510043926 | 75 | 157 | 2.0 | 4.0 | 0.00 | 0.03 | 0.03 | 88 | 1012.5 |
| 20260510043426 | 75 | 150 | 2.0 | 5.0 | 0.00 | 0.03 | 0.03 | 87 | 1012.5 |
| 20260510042925 | 75 | 149 | 2.0 | 5.0 | 0.00 | 0.03 | 0.03 | 87 | 1012.5 |
| 20260510042424 | 76 | 148 | 2.0 | 5.0 | 0.00 | 0.03 | 0.03 | 87 | 1012.6 |
| 20260510041918 | 76 | 153 | 2.0 | 5.0 | 0.00 | 0.03 | 0.03 | 86 | 1012.7 |
| 20260510041413 | 76 | 146 | 2.0 | 4.0 | 0.00 | 0.03 | 0.03 | 86 | 1012.6 |
| 20260510040910 | 76 | 146 | 3.0 | 6.0 | 0.00 | 0.03 | 0.03 | 85 | 1012.7 |
| 20260510040410 | 76 | 120 | 3.0 | 6.0 | 0.00 | 0.03 | 0.03 | 85 | 1012.7 |
| 20260510040133 | 77 | 166 | 3.0 | 6.0 | 0.00 | 0.03 | 0.03 | 85 | 1012.6 |
| 20260510035409 | 77 | 146 | 3.0 | 6.0 | 0.00 | 0.03 | 0.03 | 84 | 1012.6 |
| 20260510034908 | 77 | 155 | 3.0 | 6.0 | 0.00 | 0.03 | 0.03 | 84 | 1012.5 |
| 20260510034408 | 77 | 150 | 3.0 | 7.0 | 0.00 | 0.03 | 0.03 | 84 | 1012.4 |
| 20260510033906 | 77 | 151 | 4.0 | 9.0 | 0.00 | 0.03 | 0.03 | 83 | 1012.3 |
| 20260510033413 | 77 | 143 | 4.0 | 9.0 | 0.00 | 0.03 | 0.03 | 83 | 1012.4 |
| 20260510032911 | 77 | 124 | 4.0 | 7.0 | 0.00 | 0.03 | 0.03 | 83 | 1012.3 |
| 20260510032410 | 77 | 127 | 3.0 | 7.0 | 0.00 | 0.03 | 0.03 | 82 | 1012.1 |
| 20260510031906 | 77 | 148 | 3.0 | 7.0 | 0.00 | 0.03 | 0.03 | 82 | 1012.3 |
| 20260510031406 | 76 | 144 | 2.0 | 7.0 | 0.00 | 0.03 | 0.03 | 82 | 1012.2 |
| 20260510030906 | 76 | 146 | 2.0 | 4.0 | 0.00 | 0.03 | 0.03 | 81 | 1012.1 |
| 20260510030406 | 76 | 143 | 2.0 | 4.0 | 0.00 | 0.03 | 0.03 | 79 | 1012.0 |
| 20260510025905 | 77 | 157 | 2.0 | 4.0 | 0.00 | 0.03 | 0.03 | 78 | 1011.9 |
| 20260510025429 | 77 | 156 | 1.0 | 3.0 | 0.00 | 0.03 | 0.03 | 78 | 1011.8 |
| 20260510024904 | 77 | 156 | 1.0 | 3.0 | 0.00 | 0.03 | 0.03 | 77 | 1011.7 |
| 20260510024405 | 78 | 154 | 1.0 | 3.0 | 0.00 | 0.03 | 0.03 | 77 | 1011.7 |
| 20260510023904 | 78 | 153 | 1.0 | 5.0 | 0.00 | 0.03 | 0.03 | 76 | 1011.7 |
| 20260510023404 | 78 | 153 | 2.0 | 5.0 | 0.00 | 0.03 | 0.03 | 76 | 1011.6 |
| 20260510023145 | 78 | 153 | 2.0 | 5.0 | 0.00 | 0.03 | 0.03 | 75 | 1011.5 |
| 20260510022415 | 79 | 153 | 2.0 | 5.0 | 0.00 | 0.03 | 0.03 | 75 | 1011.6 |
| 20260510021904 | 79 | 153 | 2.0 | 5.0 | 0.00 | 0.03 | 0.03 | 74 | 1011.4 |
| 20260510021404 | 79 | 166 | 2.0 | 5.0 | 0.00 | 0.03 | 0.03 | 74 | 1011.4 |
| 20260510020904 | 79 | 146 | 2.0 | 5.0 | 0.00 | 0.03 | 0.03 | 73 | 1011.2 |
| 20260510020405 | 80 | 146 | 3.0 | 7.0 | 0.00 | 0.03 | 0.03 | 73 | 1011.1 |
| 20260510020124 | 80 | 133 | 3.0 | 7.0 | 0.00 | 0.03 | 0.03 | 72 | 1011.1 |
| 20260510015404 | 80 | 122 | 3.0 | 6.0 | 0.00 | 0.03 | 0.03 | 72 | 1011.0 |
| 20260510014904 | 80 | 137 | 3.0 | 6.0 | 0.00 | 0.03 | 0.03 | 72 | 1011.0 |
| 20260510014405 | 80 | 134 | 3.0 | 7.0 | 0.00 | 0.03 | 0.03 | 72 | 1011.0 |
| 20260510013904 | 81 | 116 | 3.0 | 7.0 | 0.00 | 0.03 | 0.03 | 72 | 1010.9 |
| 20260510013405 | 81 | 139 | 4.0 | 8.0 | 0.00 | 0.03 | 0.03 | 72 | 1010.9 |
| 20260510012904 | 81 | 123 | 4.0 | 8.0 | 0.00 | 0.03 | 0.03 | 72 | 1010.8 |
| 20260510012405 | 81 | 147 | 4.0 | 8.0 | 0.00 | 0.03 | 0.03 | 72 | 1010.7 |
| 20260510012124 | 82 | 142 | 3.0 | 7.0 | 0.00 | 0.03 | 0.03 | 72 | 1010.8 |
| 20260510011404 | 82 | 132 | 4.0 | 7.0 | 0.00 | 0.03 | 0.03 | 71 | 1010.7 |
| 20260510010904 | 82 | 128 | 4.0 | 7.0 | 0.00 | 0.03 | 0.03 | 70 | 1010.6 |
| 20260510010405 | 83 | 130 | 4.0 | 7.0 | 0.00 | 0.03 | 0.03 | 70 | 1010.5 |
| 20260510005905 | 83 | 137 | 4.0 | 9.0 | 0.00 | 0.03 | 0.03 | 70 | 1010.5 |
| 20260510005630 | 83 | 129 | 4.0 | 9.0 | 0.00 | 0.03 | 0.03 | 69 | 1010.4 |
| 20260510004905 | 84 | 148 | 4.0 | 9.0 | 0.00 | 0.03 | 0.03 | 69 | 1010.3 |
| 20260510004404 | 84 | 156 | 4.0 | 9.0 | 0.00 | 0.03 | 0.03 | 68 | 1010.3 |
| 20260510003904 | 85 | 153 | 4.0 | 8.0 | 0.00 | 0.03 | 0.03 | 67 | 1010.3 |
| 20260510003404 | 85 | 129 | 4.0 | 8.0 | 0.00 | 0.03 | 0.03 | 66 | 1010.3 |
| 20260510002901 | 85 | 144 | 4.0 | 9.0 | 0.00 | 0.03 | 0.03 | 66 | 1010.2 |
| 20260510002355 | 86 | 0 | 3.0 | 9.0 | 0.00 | 0.03 | 0.03 | 65 | 1010.2 |
| 20260510001850 | 86 | 120 | 4.0 | 9.0 | 0.00 | 0.03 | 0.03 | 64 | 1010.1 |
| 20260510001344 | 87 | 136 | 5.0 | 9.0 | 0.00 | 0.03 | 0.03 | 62 | 1010.1 |
| 20260510000836 | 88 | 121 | 4.0 | 9.0 | 0.00 | 0.03 | 0.03 | 62 | 1010.1 |
| 20260510000554 | 88 | 0 | 2.0 | 9.0 | 0.00 | 0.03 | 0.03 | 62 | 1009.9 |
| 20260509235833 | 88 | 101 | 0.0 | 3.0 | 0.00 | 0.03 | 0.03 | 61 | 1010.0 |
| 20260509235333 | 88 | 101 | 1.0 | 4.0 | 0.00 | 0.03 | 0.03 | 62 | 1010.0 |
| 20260509234834 | 88 | 104 | 2.0 | 6.0 | 0.00 | 0.03 | 0.03 | 60 | 1009.9 |
| 20260509234334 | 89 | 0 | 2.0 | 6.0 | 0.00 | 0.03 | 0.03 | 60 | 1009.9 |
| 20260509233834 | 89 | 79 | 2.0 | 5.0 | 0.00 | 0.03 | 0.03 | 60 | 1009.8 |
| 20260509233332 | 90 | 26 | 2.0 | 3.0 | 0.00 | 0.03 | 0.03 | 59 | 1009.8 |
| 20260509232833 | 90 | 64 | 2.0 | 4.0 | 0.00 | 0.03 | 0.03 | 59 | 1009.8 |
| 20260509232332 | 90 | 63 | 1.0 | 7.0 | 0.00 | 0.03 | 0.03 | 58 | 1009.8 |
| 20260509231832 | 90 | 98 | 1.0 | 7.0 | 0.00 | 0.03 | 0.03 | 58 | 1009.8 |
| 20260509231332 | 91 | 170 | 2.0 | 5.0 | 0.00 | 0.03 | 0.03 | 58 | 1009.8 |
| 20260509230833 | 90 | 171 | 2.0 | 6.0 | 0.00 | 0.03 | 0.03 | 58 | 1009.8 |
| 20260509230332 | 91 | 160 | 2.0 | 6.0 | 0.00 | 0.03 | 0.03 | 59 | 1009.8 |
| 20260509225832 | 92 | 130 | 1.0 | 4.0 | 0.00 | 0.03 | 0.03 | 58 | 1009.8 |
| 20260509225332 | 91 | 322 | 2.0 | 6.0 | 0.00 | 0.03 | 0.03 | 58 | 1009.6 |
| 20260509224832 | 91 | 187 | 2.0 | 6.0 | 0.00 | 0.03 | 0.03 | 60 | 1009.6 |
| 20260509224332 | 91 | 90 | 2.0 | 6.0 | 0.00 | 0.03 | 0.03 | 58 | 1009.8 |
| 20260509223826 | 91 | 90 | 1.0 | 6.0 | 0.00 | 0.03 | 0.03 | 58 | 1009.8 |
| 20260509223319 | 90 | 267 | 1.0 | 3.0 | 0.00 | 0.03 | 0.03 | 58 | 1009.8 |
| 20260509222813 | 90 | 265 | 1.0 | 3.0 | 0.00 | 0.03 | 0.03 | 57 | 1009.8 |
| 20260509222311 | 90 | 264 | 2.0 | 4.0 | 0.00 | 0.03 | 0.03 | 58 | 1009.9 |
| 20260509221812 | 90 | 265 | 1.0 | 4.0 | 0.00 | 0.03 | 0.03 | 58 | 1009.9 |
| 20260509221311 | 90 | 290 | 1.0 | 3.0 | 0.00 | 0.03 | 0.03 | 59 | 1010.1 |
| 20260509220811 | 90 | 298 | 1.0 | 8.0 | 0.00 | 0.03 | 0.03 | 59 | 1010.0 |
| 20260509220309 | 90 | 298 | 3.0 | 8.0 | 0.00 | 0.03 | 0.03 | 59 | 1010.1 |
| 20260509215808 | 89 | 107 | 4.0 | 8.0 | 0.00 | 0.03 | 0.03 | 59 | 1010.0 |
| 20260509215309 | 89 | 120 | 4.0 | 8.0 | 0.00 | 0.03 | 0.03 | 62 | 1010.1 |
| 20260509214807 | 89 | 154 | 3.0 | 9.0 | 0.00 | 0.03 | 0.03 | 62 | 1010.2 |
| 20260509214307 | 89 | 163 | 3.0 | 9.0 | 0.00 | 0.03 | 0.03 | 61 | 1010.1 |
| 20260509213805 | 89 | 133 | 5.0 | 9.0 | 0.00 | 0.03 | 0.03 | 61 | 1010.3 |
| 20260509213305 | 89 | 123 | 3.0 | 9.0 | 0.00 | 0.03 | 0.03 | 62 | 1010.3 |
| 20260509212804 | 89 | 57 | 2.0 | 6.0 | 0.00 | 0.03 | 0.03 | 58 | 1010.4 |
| 20260509212306 | 90 | 111 | 2.0 | 6.0 | 0.00 | 0.03 | 0.03 | 59 | 1010.4 |
| 20260509211805 | 90 | 158 | 2.0 | 6.0 | 0.00 | 0.03 | 0.03 | 62 | 1010.4 |
| 20260509211305 | 89 | 200 | 2.0 | 5.0 | 0.00 | 0.03 | 0.03 | 59 | 1010.5 |
| 20260509210805 | 89 | 81 | 2.0 | 5.0 | 0.00 | 0.03 | 0.03 | 61 | 1010.6 |
| 20260509210304 | 88 | 339 | 2.0 | 5.0 | 0.00 | 0.03 | 0.03 | 60 | 1010.6 |
| 20260509210025 | 89 | 19 | 2.0 | 7.0 | 0.00 | 0.03 | 0.03 | 61 | 1010.6 |
| 20260509205529 | 89 | 336 | 3.0 | 7.0 | 0.00 | 0.03 | 0.03 | 61 | 1010.7 |
| 20260509204756 | 89 | 334 | 3.0 | 7.0 | 0.00 | 0.03 | 0.03 | 62 | 1010.8 |
| 20260509204512 | 88 | 340 | 2.0 | 7.0 | 0.00 | 0.03 | 0.03 | 62 | 1010.9 |
| 20260509203743 | 88 | 28 | 3.0 | 7.0 | 0.00 | 0.03 | 0.03 | 62 | 1010.9 |
| 20260509203236 | 88 | 132 | 3.0 | 7.0 | 0.00 | 0.03 | 0.03 | 62 | 1011.1 |
| 20260509202738 | 88 | 76 | 2.0 | 7.0 | 0.00 | 0.03 | 0.03 | 63 | 1011.2 |
| 20260509202237 | 87 | 72 | 3.0 | 7.0 | 0.00 | 0.03 | 0.03 | 63 | 1011.3 |
| 20260509201738 | 88 | 120 | 4.0 | 8.0 | 0.00 | 0.03 | 0.03 | 62 | 1011.4 |
| 20260509201235 | 87 | 102 | 3.0 | 8.0 | 0.00 | 0.03 | 0.03 | 64 | 1011.4 |
| 20260509200736 | 87 | 38 | 2.0 | 7.0 | 0.00 | 0.03 | 0.03 | 64 | 1011.6 |
| 20260509200500 | 87 | 59 | 3.0 | 7.0 | 0.00 | 0.03 | 0.03 | 62 | 1011.5 |
| 20260509200229 | 86 | 34 | 3.0 | 7.0 | 0.00 | 0.03 | 0.03 | 65 | 1011.5 |
| 20260509195235 | 86 | 17 | 2.0 | 6.0 | 0.00 | 0.03 | 0.03 | 66 | 1011.5 |
| 20260509194956 | 86 | 37 | 2.0 | 5.0 | 0.00 | 0.03 | 0.03 | 66 | 1011.5 |
| 20260509194236 | 85 | 351 | 2.0 | 4.0 | 0.00 | 0.03 | 0.03 | 67 | 1011.6 |
| 20260509193735 | 85 | 39 | 2.0 | 4.0 | 0.00 | 0.03 | 0.03 | 68 | 1011.6 |
| 20260509193236 | 84 | 13 | 2.0 | 7.0 | 0.00 | 0.03 | 0.03 | 68 | 1011.7 |
| 20260509192733 | 84 | 20 | 2.0 | 7.0 | 0.00 | 0.03 | 0.03 | 70 | 1011.7 |
| 20260509192232 | 83 | 36 | 2.0 | 6.0 | 0.00 | 0.03 | 0.03 | 77 | 1011.8 |
| 20260509191732 | 83 | 76 | 2.0 | 6.0 | 0.00 | 0.03 | 0.03 | 76 | 1011.9 |
| 20260509191232 | 82 | 28 | 3.0 | 7.0 | 0.00 | 0.03 | 0.03 | 80 | 1011.9 |
| 20260509190731 | 82 | 36 | 3.0 | 7.0 | 0.01 | 0.03 | 0.03 | 79 | 1012.1 |
| 20260509190231 | 81 | 63 | 3.0 | 7.0 | 0.01 | 0.03 | 0.03 | 83 | 1012.3 |
| 20260509185731 | 81 | 46 | 3.0 | 7.0 | 0.02 | 0.03 | 0.03 | 84 | 1012.3 |
| 20260509185712 | 80 | 13 | 3.0 | 7.0 | 0.03 | 0.03 | 0.03 | 85 | 1012.3 |
| 20260509184731 | 79 | 116 | 3.0 | 7.0 | 0.03 | 0.03 | 0.03 | 84 | 1012.4 |
| 20260509184454 | 78 | 11 | 2.0 | 7.0 | 0.03 | 0.03 | 0.03 | 90 | 1012.4 |
| 20260509183731 | 77 | 94 | 1.0 | 4.0 | 0.03 | 0.03 | 0.03 | 92 | 1012.3 |
| 20260509183453 | 77 | 25 | 1.0 | 4.0 | 0.03 | 0.03 | 0.03 | 90 | 1012.4 |
| 20260509183004 | 76 | 25 | 2.0 | 4.0 | 0.03 | 0.03 | 0.03 | 90 | 1012.6 |
| 20260509182232 | 76 | 0 | 2.0 | 4.0 | 0.03 | 0.03 | 0.03 | 91 | 1012.7 |
| 20260509181732 | 77 | 15 | 2.0 | 6.0 | 0.03 | 0.03 | 0.03 | 91 | 1012.9 |
| 20260509181229 | 77 | 17 | 2.0 | 6.0 | 0.03 | 0.03 | 0.03 | 92 | 1012.9 |
| 20260509180728 | 77 | 76 | 2.0 | 6.0 | 0.02 | 0.02 | 0.02 | 91 | 1012.8 |
| 20260509180228 | 78 | 59 | 2.0 | 6.0 | 0.02 | 0.02 | 0.02 | 89 | 1012.8 |
| 20260509175728 | 79 | 71 | 2.0 | 9.0 | 0.01 | 0.01 | 0.01 | 87 | 1013.0 |
| 20260509175228 | 80 | 26 | 2.0 | 9.0 | 0.00 | 0.00 | 0.00 | 85 | 1013.0 |
| 20260509174727 | 80 | 250 | 2.0 | 9.0 | 0.00 | 0.00 | 0.00 | 83 | 1013.0 |
| 20260509174228 | 81 | 238 | 3.0 | 9.0 | 0.00 | 0.00 | 0.00 | 80 | 1012.5 |
| 20260509173728 | 81 | 221 | 2.0 | 6.0 | 0.00 | 0.00 | 0.00 | 78 | 1013.0 |
| 20260509173228 | 82 | 165 | 3.0 | 8.0 | 0.00 | 0.00 | 0.00 | 77 | 1013.4 |
| 20260509172728 | 82 | 166 | 5.0 | 9.0 | 0.00 | 0.00 | 0.00 | 78 | 1013.2 |
| 20260509172228 | 82 | 150 | 5.0 | 10.0 | 0.00 | 0.00 | 0.00 | 79 | 1013.2 |
| 20260509171728 | 82 | 155 | 5.0 | 10.0 | 0.00 | 0.00 | 0.00 | 78 | 1013.4 |
| 20260509171228 | 82 | 128 | 5.0 | 11.0 | 0.00 | 0.00 | 0.00 | 80 | 1013.6 |
| 20260509170728 | 81 | 124 | 6.0 | 11.0 | 0.00 | 0.00 | 0.00 | 81 | 1013.4 |
| 20260509170228 | 81 | 163 | 5.0 | 10.0 | 0.00 | 0.00 | 0.00 | 80 | 1013.5 |
| 20260509165946 | 81 | 113 | 4.0 | 10.0 | 0.00 | 0.00 | 0.00 | 79 | 1013.4 |
| 20260509165224 | 82 | 217 | 4.0 | 10.0 | 0.00 | 0.00 | 0.00 | 80 | 1013.3 |
| 20260509164720 | 82 | 190 | 5.0 | 10.0 | 0.00 | 0.00 | 0.00 | 81 | 1013.3 |
| 20260509164220 | 82 | 211 | 5.0 | 12.0 | 0.00 | 0.00 | 0.00 | 79 | 1013.3 |
| 20260509163719 | 82 | 186 | 5.0 | 12.0 | 0.00 | 0.00 | 0.00 | 81 | 1013.4 |
| 20260509163219 | 82 | 188 | 6.0 | 11.0 | 0.00 | 0.00 | 0.00 | 80 | 1013.5 |
| 20260509162712 | 83 | 176 | 6.0 | 11.0 | 0.00 | 0.00 | 0.00 | 81 | 1013.5 |
| 20260509162209 | 82 | 141 | 6.0 | 12.0 | 0.00 | 0.00 | 0.00 | 81 | 1013.6 |
| 20260509161708 | 82 | 175 | 5.0 | 12.0 | 0.00 | 0.00 | 0.00 | 81 | 1013.5 |
| 20260509161432 | 83 | 198 | 4.0 | 12.0 | 0.00 | 0.00 | 0.00 | 82 | 1013.4 |
| 20260509160709 | 82 | 200 | 5.0 | 12.0 | 0.00 | 0.00 | 0.00 | 81 | 1013.4 |
| 20260509160208 | 83 | 188 | 5.0 | 11.0 | 0.00 | 0.00 | 0.00 | 77 | 1013.2 |
| 20260509155709 | 83 | 241 | 4.0 | 11.0 | 0.00 | 0.00 | 0.00 | 75 | 1013.0 |
| 20260509155209 | 83 | 227 | 4.0 | 13.0 | 0.00 | 0.00 | 0.00 | 76 | 1013.0 |
| 20260509154709 | 83 | 225 | 4.0 | 13.0 | 0.00 | 0.00 | 0.00 | 76 | 1012.9 |
| 20260509154208 | 83 | 235 | 4.0 | 10.0 | 0.00 | 0.00 | 0.00 | 78 | 1012.7 |
| 20260509153705 | 82 | 212 | 4.0 | 10.0 | 0.00 | 0.00 | 0.00 | 79 | 1012.6 |
| 20260509153204 | 82 | 218 | 4.0 | 10.0 | 0.00 | 0.00 | 0.00 | 79 | 1012.4 |
| 20260509152704 | 81 | 237 | 4.0 | 9.0 | 0.00 | 0.00 | 0.00 | 79 | 1012.4 |
| 20260509152204 | 81 | 210 | 4.0 | 8.0 | 0.00 | 0.00 | 0.00 | 82 | 1012.4 |
| 20260509151704 | 81 | 239 | 4.0 | 8.0 | 0.00 | 0.00 | 0.00 | 82 | 1012.6 |
| 20260509151430 | 80 | 258 | 4.0 | 8.0 | 0.00 | 0.00 | 0.00 | 83 | 1012.6 |
| 20260509150933 | 80 | 242 | 4.0 | 7.0 | 0.00 | 0.00 | 0.00 | 83 | 1012.7 |
| 20260509150204 | 80 | 223 | 4.0 | 9.0 | 0.00 | 0.00 | 0.00 | 84 | 1012.6 |
| 20260509145702 | 80 | 161 | 4.0 | 9.0 | 0.00 | 0.00 | 0.00 | 83 | 1012.6 |
| 20260509145202 | 80 | 219 | 4.0 | 8.0 | 0.00 | 0.00 | 0.00 | 85 | 1012.5 |
| 20260509144944 | 80 | 185 | 5.0 | 11.0 | 0.00 | 0.00 | 0.00 | 85 | 1012.5 |
| 20260509144203 | 79 | 205 | 5.0 | 11.0 | 0.00 | 0.00 | 0.00 | 86 | 1012.5 |
| 20260509143703 | 79 | 180 | 6.0 | 10.0 | 0.00 | 0.00 | 0.00 | 86 | 1012.4 |
| 20260509143204 | 78 | 205 | 5.0 | 10.0 | 0.00 | 0.00 | 0.00 | 86 | 1012.4 |
| 20260509142702 | 78 | 160 | 4.0 | 8.0 | 0.00 | 0.00 | 0.00 | 87 | 1012.4 |
| 20260509142203 | 78 | 165 | 4.0 | 8.0 | 0.00 | 0.00 | 0.00 | 88 | 1012.4 |
| 20260509141703 | 77 | 161 | 4.0 | 8.0 | 0.00 | 0.00 | 0.00 | 88 | 1012.4 |
| 20260509141203 | 77 | 194 | 4.0 | 7.0 | 0.00 | 0.00 | 0.00 | 88 | 1012.3 |
| 20260509140703 | 77 | 180 | 4.0 | 9.0 | 0.00 | 0.00 | 0.00 | 89 | 1012.1 |
| 20260509140204 | 76 | 194 | 4.0 | 9.0 | 0.00 | 0.00 | 0.00 | 90 | 1012.1 |
| 20260509135703 | 76 | 200 | 4.0 | 8.0 | 0.00 | 0.00 | 0.00 | 90 | 1012.0 |
| 20260509135204 | 76 | 161 | 4.0 | 9.0 | 0.00 | 0.00 | 0.00 | 93 | 1012.0 |
| 20260509134703 | 75 | 186 | 4.0 | 14.0 | 0.00 | 0.00 | 0.00 | 94 | 1012.1 |
| 20260509134432 | 74 | 202 | 6.0 | 14.0 | 0.00 | 0.00 | 0.00 | 95 | 1011.9 |
| 20260509133704 | 74 | 165 | 6.0 | 14.0 | 0.00 | 0.00 | 0.00 | 96 | 1011.7 |
| 20260509133204 | 73 | 176 | 5.0 | 14.0 | 0.00 | 0.00 | 0.00 | 97 | 1011.6 |
| 20260509132703 | 73 | 177 | 4.0 | 11.0 | 0.00 | 0.00 | 0.00 | 97 | 1011.6 |
| 20260509132432 | 72 | 168 | 4.0 | 11.0 | 0.00 | 0.00 | 0.00 | 97 | 1011.1 |
| 20260509131704 | 72 | 182 | 3.0 | 9.0 | 0.00 | 0.00 | 0.00 | 98 | 1011.2 |
| 20260509131203 | 72 | 196 | 3.0 | 9.0 | 0.00 | 0.00 | 0.00 | 98 | 1011.7 |
| 20260509130714 | 72 | 165 | 3.0 | 9.0 | 0.00 | 0.00 | 0.00 | 98 | 1011.7 |
| 20260509130211 | 71 | 163 | 3.0 | 10.0 | 0.00 | 0.00 | 0.00 | 98 | 1011.7 |
| 20260509125709 | 71 | 179 | 5.0 | 10.0 | 0.00 | 0.00 | 0.00 | 98 | 1011.8 |
| 20260509125207 | 71 | 194 | 5.0 | 10.0 | 0.00 | 0.00 | 0.00 | 98 | 1011.6 |
| 20260509124709 | 71 | 187 | 5.0 | 10.0 | 0.00 | 0.00 | 0.00 | 98 | 1011.5 |
| 20260509124205 | 71 | 193 | 4.0 | 8.0 | 0.00 | 0.00 | 0.00 | 98 | 1011.5 |
| 20260509123721 | 70 | 158 | 3.0 | 8.0 | 0.00 | 0.00 | 0.00 | 98 | 1012.0 |